GFSFLT2_sfc_dewp_075.txt.gz
Dewpoint
63 64 63 64 64 64 64 65 66 67 67 66 66 66 65 64 64 63 62 60 60 59 61 62 61 59 59 58 58 56 51 51
61 62 61 61 61 65 65 65 65 65 65 66 65 65 64 64 63 62 60 59 58 58 58 60 61 60 58 58 57 55 50 51
60 60 60 60 60 63 63 64 65 64 64 65 63 62 62 60 61 61 60 58 58 57 57 60 60 59 59 58 54 51 51 52
59 59 59 59 59 58 60 62 63 62 62 62 61 60 60 60 61 60 59 57 57 57 55 55 55 54 55 54 51 51 52 52
58 58 58 57 57 57 58 61 61 61 61 60 59 60 60 59 58 55 52 51 45 46 43 39 40 45 47 49 51 51 52 53
57 58 57 56 56 56 58 60 60 60 60 59 59 58 57 56 54 52 48 46 45 45 43 41 39 43 46 47 49 49 51 53
57 57 56 55 56 57 58 60 60 60 60 58 57 55 54 53 51 48 46 46 47 44 41 40 39 38 40 44 45 47 50 52
57 56 56 56 56 57 57 60 58 60 59 57 56 54 53 51 49 47 45 47 48 44 41 40 39 38 37 38 39 42 45 48
57 55 56 56 55 56 58 57 57 57 57 57 55 54 52 50 49 48 47 48 47 44 42 41 39 38 36 39 41 41 40 44
57 57 56 58 56 57 58 58 57 57 57 56 55 54 53 51 50 50 51 50 48 46 44 42 40 38 37 37 40 43 42 42
57 57 57 58 58 57 58 57 57 58 57 56 54 54 55 52 51 52 53 52 50 48 46 44 41 40 38 38 37 39 42 43
57 57 57 57 56 56 56 55 56 58 57 57 57 54 55 55 53 53 53 52 51 49 46 45 43 42 38 37 38 38 37 40
57 56 56 55 55 54 53 53 55 56 57 57 57 56 56 55 54 54 53 51 51 49 47 46 46 43 41 41 41 41 39 37
56 54 55 54 53 53 53 53 54 54 56 56 57 57 57 56 55 54 53 51 50 48 47 48 47 44 41 42 39 41 43 41
54 54 54 54 51 50 52 52 52 53 53 55 56 57 57 56 56 55 53 52 50 49 48 48 46 47 46 44 43 42 41 42
53 53 53 54 53 49 50 50 49 51 52 53 55 57 56 57 56 55 54 52 51 50 50 49 49 48 48 47 46 46 43 41
51 51 52 53 52 51 50 49 49 51 51 52 52 56 57 57 57 55 55 54 53 53 52 50 51 51 49 45 45 46 45 43
50 49 49 50 51 53 50 51 52 52 51 51 52 53 56 57 57 57 56 55 54 53 53 52 51 51 49 47 45 45 45 44
48 48 47 48 50 52 52 52 52 51 52 52 51 52 55 56 57 57 57 57 56 54 55 53 51 50 49 48 48 48 46 46
47 46 46 47 49 51 53 52 52 52 51 52 53 52 53 56 58 58 58 57 56 55 54 53 51 51 49 48 48 47 46 44

GFSFLT2_sfc_dewp_081.txt.gz
Dewpoint
66 66 65 66 65 65 65 65 66 66 67 67 66 66 66 66 65 64 64 66 65 63 62 61 61 60 59 59 58 58 53 53
64 64 63 63 65 64 65 65 65 66 66 65 65 65 66 64 63 64 65 65 64 63 62 61 61 60 60 59 59 58 53 53
63 62 61 62 63 64 65 66 65 65 66 65 63 63 63 61 61 64 65 64 63 62 61 61 60 60 59 58 57 53 53 52
60 61 61 61 62 64 65 64 64 64 66 63 62 61 60 58 61 63 64 63 62 62 61 60 57 54 54 55 52 53 53 52
59 60 60 60 61 63 64 65 64 64 63 62 61 59 59 58 57 58 61 62 58 58 57 53 54 52 51 52 54 53 52 52
59 59 58 59 61 61 62 64 62 62 62 60 59 58 56 56 53 54 55 58 59 57 54 55 54 52 52 53 53 52 52 52
58 58 57 58 58 60 61 61 61 61 61 60 57 55 54 52 51 48 49 51 54 53 52 52 52 51 51 52 53 53 54 52
57 57 57 57 58 60 60 60 60 60 60 58 57 54 51 49 47 48 48 47 48 50 51 51 50 50 50 51 52 52 53 54
56 56 57 57 58 60 60 60 60 60 58 58 56 53 50 48 47 48 48 46 47 47 49 50 49 48 49 50 51 52 53 54
56 56 56 57 57 59 60 60 60 59 58 56 56 54 50 49 47 50 50 49 46 44 44 46 46 45 46 47 47 50 52 53
56 56 56 57 57 59 60 59 60 59 57 55 55 53 52 49 48 51 52 49 48 45 44 43 42 41 41 42 43 45 48 49
57 56 57 57 59 59 59 59 59 59 56 54 54 52 51 50 49 52 52 50 48 47 46 46 43 41 34 39 43 44 44 43
57 56 56 58 57 58 58 57 58 58 58 56 55 54 52 52 51 51 52 51 51 52 49 48 45 45 43 42 42 43 44 43
57 56 56 56 57 58 58 58 58 58 58 57 55 55 54 52 53 51 52 51 53 51 50 47 47 46 44 44 43 43 42 42
57 56 56 56 58 57 57 57 57 57 57 55 56 55 54 53 54 53 54 54 52 53 52 51 48 48 48 47 46 45 45 46
56 56 56 56 57 56 56 54 54 55 55 53 53 56 55 54 54 54 55 54 54 54 53 52 52 50 49 50 51 49 47 47
56 56 56 56 56 56 55 55 54 54 54 55 57 57 56 54 55 56 56 56 56 56 55 54 54 53 51 51 50 50 50 50
54 54 55 55 55 55 55 55 55 54 54 54 56 56 57 58 57 57 57 57 57 57 57 56 55 54 53 52 51 50 48 48
53 53 54 55 54 54 55 54 55 54 55 55 55 56 56 58 58 59 58 58 58 58 57 56 56 56 55 54 52 51 51 49
52 54 54 55 55 54 53 54 53 53 54 54 54 55 55 56 57 58 58 58 58 58 59 58 58 57 56 55 54 51 51 51

GFSFLT2_sfc_dewp_084.txt.gz
Dewpoint
66 67 66 65 66 65 66 67 67 67 67 67 67 67 67 67 67 67 67 65 64 63 63 62 61 60 60 60 59 60 50 51
65 65 66 65 66 66 65 66 65 66 66 66 66 66 66 65 65 66 66 65 64 63 62 61 60 61 60 59 59 59 50 50
65 65 64 64 65 65 65 65 65 65 64 65 64 64 64 63 63 65 65 64 63 63 62 61 60 60 60 59 58 50 50 49
63 62 62 63 63 64 64 66 65 65 64 65 63 64 62 61 63 65 64 63 62 62 62 60 57 52 54 56 49 51 50 50
60 61 62 62 62 64 64 67 66 65 64 64 64 63 62 62 63 63 62 59 55 57 56 51 51 49 50 49 51 51 50 50
60 60 60 60 62 63 64 64 66 66 62 63 62 60 59 60 60 60 59 55 55 54 52 53 52 50 50 51 51 49 49 50
59 59 58 59 60 63 63 65 64 63 61 62 61 59 56 57 59 59 58 57 56 54 53 52 51 49 50 51 50 50 51 49
59 58 58 59 60 61 61 63 62 60 60 60 59 59 55 53 54 55 57 58 56 54 53 51 48 47 48 50 50 50 51 51
58 58 58 58 60 60 60 61 60 59 59 58 57 56 55 53 50 51 52 54 56 53 53 49 47 45 47 48 49 51 50 51
58 57 57 58 59 60 60 60 59 59 58 57 55 54 52 50 49 50 50 51 52 51 49 48 47 45 46 46 47 49 51 51
58 57 57 58 60 60 59 60 59 59 57 55 53 52 51 49 50 50 49 48 49 47 46 47 45 44 44 44 45 47 50 48
58 57 57 58 60 59 59 59 59 59 56 52 51 49 51 51 49 51 47 45 46 45 46 45 44 42 35 39 43 44 46 48
57 56 57 59 58 58 58 57 58 58 56 55 54 48 49 50 49 50 48 47 49 51 48 48 44 44 40 41 42 45 46 44
57 56 56 57 58 59 58 58 58 57 56 55 54 54 49 49 51 51 51 51 53 52 52 49 47 46 45 47 45 44 43 44
57 56 56 57 58 58 58 57 58 57 57 55 54 54 51 50 52 53 54 53 53 54 53 52 48 49 49 48 48 48 48 46
57 57 56 56 57 57 56 54 54 55 55 55 55 55 54 50 52 53 55 53 53 55 53 53 53 50 49 48 52 52 47 49
56 57 56 56 57 57 57 55 54 56 54 53 53 56 56 53 53 54 55 53 55 55 55 55 53 53 52 51 51 51 52 50
56 56 56 56 56 57 57 56 55 55 53 52 49 52 53 56 53 55 55 54 55 56 57 57 56 55 54 54 53 51 50 51
54 55 55 56 56 56 56 56 55 55 53 52 50 50 49 54 56 55 55 56 56 58 59 58 58 57 57 55 55 54 54 53
54 54 54 56 56 56 57 56 56 55 54 52 52 53 53 55 57 58 58 58 58 59 59 59 59 59 58 58 57 57 56 54

GFSFLT2_sfc_dewp_087.txt.gz
Dewpoint
67 69 67 65 66 66 66 66 66 66 66 65 64 66 66 66 66 66 66 65 65 64 64 63 62 62 61 60 59 60 49 50
65 67 68 67 66 65 65 65 65 64 65 65 65 66 66 66 66 66 66 65 64 63 63 62 62 61 60 59 58 59 49 49
65 65 66 66 66 65 65 65 65 64 65 64 61 65 64 65 64 65 65 64 63 62 62 61 61 60 59 59 60 48 48 48
63 65 64 65 63 65 65 65 65 65 65 65 65 65 65 64 65 64 64 63 63 62 61 60 56 52 52 56 52 50 48 50
61 63 63 64 65 64 64 66 66 65 65 65 64 64 64 65 65 63 62 61 57 56 55 49 50 49 51 52 51 51 49 50
60 61 61 62 62 63 65 66 66 65 64 63 64 63 63 64 63 60 58 56 55 53 50 54 52 49 50 51 51 49 49 51
59 61 60 61 61 63 64 65 66 65 64 64 64 63 62 62 61 58 55 56 55 53 52 50 50 50 50 50 50 50 51 50
58 59 60 60 60 61 63 64 65 64 63 63 62 61 61 61 60 57 57 56 55 54 53 50 48 48 50 50 49 50 50 52
59 59 59 59 61 61 61 63 63 62 60 60 59 59 59 60 60 59 59 58 58 57 54 50 46 46 48 49 49 50 50 51
57 58 58 59 60 60 61 60 60 59 59 59 58 57 56 57 57 58 59 59 56 55 53 49 48 46 48 48 48 49 51 51
57 58 57 59 60 60 59 59 58 58 57 57 56 56 56 54 54 54 57 55 55 54 53 53 50 46 45 46 48 48 50 48
58 58 58 59 60 59 58 57 57 57 56 55 55 54 54 53 52 53 52 51 53 51 52 51 50 47 40 43 46 47 49 49
57 57 58 59 58 57 56 56 56 56 55 56 55 54 52 52 50 51 49 48 49 52 52 52 48 47 41 42 44 46 47 47
56 57 57 58 58 57 56 56 55 55 54 53 51 52 50 51 52 50 51 49 52 53 53 49 46 49 44 45 45 44 45 46
55 56 56 58 59 58 57 56 57 56 55 52 51 50 48 50 55 52 54 54 54 56 55 53 49 49 51 49 49 49 51 47
56 56 56 57 59 57 55 53 52 53 52 50 53 54 52 50 54 56 55 55 55 56 54 55 54 50 50 49 53 52 50 51
56 57 56 56 58 57 57 54 52 52 52 52 53 56 56 53 52 56 56 55 57 58 57 56 54 52 51 51 52 51 54 50
56 56 56 56 57 57 56 55 53 54 52 52 54 54 55 55 52 56 56 57 57 57 58 57 57 57 55 55 52 50 49 50
56 56 55 56 57 57 57 56 54 55 53 53 51 52 53 55 55 57 56 57 57 57 59 59 59 57 58 56 56 54 53 54
54 54 55 56 56 56 57 57 54 54 55 53 51 51 52 54 58 57 56 57 57 58 58 59 60 60 60 59 57 57 57 56

GFSFLT2_sfc_dewp_093.txt.gz
Dewpoint
66 67 68 68 68 68 67 67 66 66 65 64 62 64 66 67 68 67 67 66 66 66 65 65 64 63 62 60 60 59 53 53
65 65 66 65 66 66 66 66 65 65 64 64 62 63 65 66 66 66 67 66 66 65 64 64 63 61 59 59 59 59 53 54
62 66 66 66 65 66 66 66 65 65 64 64 63 63 65 65 65 66 66 65 65 64 63 62 61 59 60 59 57 53 54 54
61 63 66 66 65 63 64 65 64 64 64 63 63 63 64 65 65 64 65 64 64 63 62 61 57 53 54 56 52 53 53 54
61 61 62 65 65 64 63 64 64 64 64 63 62 63 64 64 64 63 62 63 61 60 58 54 52 52 52 52 52 53 53 54
60 60 61 62 65 64 64 63 63 64 63 62 62 63 62 63 62 61 60 59 58 56 54 51 50 51 51 53 52 52 53 55
59 60 60 61 62 63 63 63 63 63 63 62 63 63 62 62 61 59 57 57 55 52 52 50 50 51 52 52 52 53 53 55
59 59 59 60 59 60 60 62 63 63 63 62 62 63 63 62 59 56 55 53 50 51 49 50 50 49 51 52 52 53 53 55
59 59 60 60 58 59 60 61 63 63 63 63 62 63 63 60 58 55 53 49 50 52 50 51 49 51 50 51 52 53 53 54
58 58 58 60 59 59 59 61 63 64 63 63 62 62 62 59 57 54 55 48 52 52 51 50 51 50 50 50 52 52 53 53
57 57 58 60 60 59 59 61 61 61 62 63 62 62 62 60 58 55 57 50 55 52 51 50 50 50 49 50 50 52 53 52
57 57 59 59 59 58 58 58 58 59 60 61 62 62 62 60 59 57 56 55 53 51 50 50 50 49 47 49 50 52 52 52
56 57 59 58 57 56 56 55 56 56 58 59 60 61 60 59 58 57 55 54 51 50 52 49 49 48 47 48 49 51 50 51
56 57 58 57 57 56 55 55 55 55 56 56 57 58 58 57 56 55 54 52 51 51 51 49 48 50 47 46 43 44 48 50
56 57 58 57 57 55 55 54 54 53 53 54 55 56 56 56 55 53 52 51 51 50 50 48 46 48 47 46 46 44 45 46
56 56 58 57 56 54 53 52 51 52 52 53 54 55 55 54 53 52 52 50 49 51 52 49 47 45 48 53 53 53 48 47
55 56 57 56 55 54 52 51 51 52 52 52 53 54 55 54 53 52 52 52 50 52 53 52 51 50 49 50 50 52 52 50
55 56 57 56 55 53 51 50 50 50 50 51 51 51 51 52 52 50 51 51 53 53 55 55 55 54 54 53 51 50 50 50
55 55 57 56 54 53 51 52 52 50 49 50 49 49 50 52 51 52 53 53 55 54 55 56 56 56 55 54 55 53 52 51
54 54 56 56 55 53 51 52 52 51 49 50 49 48 49 51 53 54 54 54 55 56 56 56 57 56 56 55 54 54 54 53

GFSFLT2_sfc_dewp_096.txt.gz
Dewpoint
66 67 69 69 69 69 69 69 66 66 66 65 65 64 64 63 65 67 67 67 67 67 66 66 65 63 62 61 60 60 55 57
64 64 65 65 67 67 67 67 66 66 66 65 64 64 65 64 66 65 66 67 66 66 65 64 63 62 61 60 59 59 55 56
64 64 64 64 65 66 66 66 65 65 65 64 63 62 64 64 64 66 65 65 65 65 64 63 61 61 60 60 57 54 54 55
62 64 64 64 65 65 65 65 64 63 62 62 61 63 63 65 65 65 64 64 64 64 63 62 58 55 57 58 54 54 53 53
61 62 64 64 63 63 64 65 63 62 62 62 61 62 64 64 65 64 64 64 62 61 60 56 52 52 53 54 54 53 53 53
60 60 61 62 63 63 64 64 64 63 63 62 62 62 62 63 64 64 62 61 59 57 55 53 51 52 53 53 53 53 54 54
59 59 60 60 62 62 63 63 64 63 63 62 62 62 62 63 62 62 60 59 57 54 52 51 50 51 53 53 53 53 54 54
58 58 59 60 60 60 62 62 62 63 63 62 63 62 62 61 61 59 58 56 55 53 50 50 50 51 52 52 53 53 54 55
58 58 58 59 58 60 61 62 63 63 63 62 63 62 62 60 59 58 56 54 51 51 49 50 49 51 52 53 53 53 54 55
58 59 58 58 57 58 59 60 63 63 63 62 63 62 62 59 58 56 53 51 51 51 49 49 49 51 52 52 53 53 54 54
58 58 58 58 59 60 58 60 62 63 63 62 62 63 61 59 57 53 51 49 52 50 49 49 50 50 51 52 53 53 53 53
57 57 58 59 60 59 59 59 60 61 62 62 62 62 60 59 56 53 48 51 53 51 49 51 50 50 49 51 52 53 53 53
56 57 58 58 58 57 56 56 57 58 60 62 62 62 61 58 57 55 47 52 52 51 49 49 50 50 49 50 51 52 52 52
56 57 57 57 57 56 56 56 55 56 57 58 62 62 61 59 57 56 49 53 51 50 49 49 49 49 47 47 46 47 49 51
55 56 56 57 56 56 55 54 54 54 55 56 57 61 60 59 56 56 53 52 50 50 48 47 47 49 48 47 45 45 46 47
56 56 56 56 56 55 53 53 52 53 53 54 56 58 59 58 57 56 54 52 50 50 49 48 47 46 48 52 52 50 46 44
56 56 55 56 55 54 53 53 52 53 52 53 54 56 57 56 56 55 53 52 51 52 51 50 49 50 48 50 51 52 52 49
55 56 54 55 54 54 53 52 52 52 51 52 53 55 55 55 54 54 53 52 53 51 53 51 52 51 51 51 49 49 50 50
55 55 53 55 54 53 51 51 51 51 51 51 52 53 54 54 54 54 54 53 54 53 53 54 53 53 52 51 53 51 52 52
55 55 53 54 54 53 51 51 51 51 51 51 51 52 53 53 53 53 53 53 53 55 54 54 56 54 54 54 54 54 53 52